Location: Boitzum
(52.1496°N, 9.6943°E)
Time: 20:11:39
(UTC+00:00)

Cosmos 1943 Rocket - Pass Details

Date: 13 January 2026
Orbit: 811 x 842 km, 71.0° (Epoch: 16 February)

Event Time Altitude Azimuth Distance (km) Brightness Sun altitude
Rises 05:59:39 0° 213° (SSW) 3,326 5.2 -12.4°
Reaches altitude 10° 06:02:03 10° 214° (SW) 2,397 4.4 -12.1°
Maximum altitude 06:07:33 79° 302° (WNW) 833 2.1 -11.3°
Drops below altitude 10° 06:13:04 10° 29° (NNE) 2,411 4.7 -10.5°
Sets 06:15:31 0° 31° (NNE) 3,349 5.4 -10.1°
